Weather History for Orlando International, FL

Change the Weather History Date:

Friday, January 4, 2013

  Actual Average Record
Temperature  
Mean Temperature 58 °F 60 °F  
Max Temperature 60 °F 71 °F 86 °F (1938)
Min Temperature 55 °F 49 °F 28 °F (1928)
Degree Days  
Heating Degree Days 7 6  
Month to date heating degree days 7 24  
Since 1 July heating degree days 172 215  
Cooling Degree Days 0 1  
Month to date cooling degree days 5 7  
Year to date cooling degree days 5 7  
Growing Degree Days 8 (Base 50)    
Moisture  
Dew Point 57 °F    
Average Humidity 95    
Maximum Humidity 100    
Minimum Humidity 90    
Precipitation  
Precipitation 0.03 in 0.08 in 1.65 in (1969)
Month to date precipitation 0.04 0.30  
Year to date precipitation 0.04 0.30  
Sea Level Pressure  
Sea Level Pressure 30.24 in    
Wind  
Wind Speed 9 mph (North)    
Max Wind Speed 17 mph    
Max Gust Speed 22 mph    
Visibility 6 miles    
Events Rain    
T = Trace of Precipitation, MM = Missing Value Source: NWS Daily Summary

Daily Weather History Graph

Daily Weather History Graph

Search for Another Location

Airport:

Trip Planner

Search our weather history database for the weather conditions in past years. The results will help you decide how hot, cold, wet, or windy it might be!

Date:

Astronomy

Jan. 04, 2013 Rise Set
Actual Time 7:18 AM EST 5:42 PM EST
Civil Twilight 6:52 AM EST 6:08 PM EST
Nautical Twilight 6:23 AM EST 6:37 PM EST
Astronomical Twilight 5:54 AM EST 7:06 PM EST
Moon No Moon Rise 11:38 AM EST (1/4)
Length of Visible Light 11h 15m
Length of Day
10h 24m
Waning Gibbous, 55% of the Moon is Illuminated
Jan 4
Waning Gibbous
Jan 4
Last Quarter
Jan 11
New
Jan 18
First Quarter
Jan 26
Full

Hourly Weather History & Observations

Time (EST) Temp. Dew Point Humidity Pressure Visibility Wind Dir Wind Speed Gust Speed Precip Events Conditions
12:53 AM 60.1 °F 59.0 °F 96% 30.17 in 10.0 mi North 10.4 mph - 0.00 in Rain Light Rain
1:53 AM 59.0 °F 57.9 °F 96% 30.17 in 6.0 mi North 11.5 mph - 0.00 in Rain Light Rain
2:04 AM 57.2 °F 57.2 °F 100% 30.17 in 3.0 mi North 16.1 mph - 0.01 in Rain Light Rain
2:53 AM 57.0 °F 57.0 °F 100% 30.18 in 3.0 mi North 12.7 mph - 0.02 in   Overcast
3:53 AM 55.9 °F 55.9 °F 100% 30.18 in 10.0 mi North 4.6 mph - 0.00 in   Overcast
4:53 AM 57.0 °F 57.0 °F 100% 30.18 in 10.0 mi North 6.9 mph - 0.00 in   Overcast
5:53 AM 57.0 °F 57.0 °F 100% 30.19 in 10.0 mi North 11.5 mph - 0.00 in   Overcast
6:53 AM 55.9 °F 55.9 °F 100% 30.22 in 10.0 mi North 12.7 mph - 0.00 in   Overcast
7:53 AM 55.9 °F 54.0 °F 93% 30.25 in 10.0 mi North 10.4 mph - N/A   Overcast
8:53 AM 55.9 °F 55.0 °F 97% 30.26 in 10.0 mi North 9.2 mph - N/A   Overcast
9:53 AM 57.0 °F 55.0 °F 93% 30.27 in 10.0 mi North 9.2 mph - N/A   Overcast
10:53 AM 57.9 °F 57.0 °F 97% 30.27 in 3.0 mi NNW 6.9 mph - 0.00 in   Light Drizzle
11:53 AM 59.0 °F 57.9 °F 96% 30.25 in 3.0 mi North 8.1 mph - 0.00 in   Overcast
12:53 PM 60.1 °F 57.9 °F 93% 30.22 in 3.0 mi North 10.4 mph - 0.00 in Rain Light Rain
1:07 PM 60.8 °F 57.2 °F 88% 30.22 in 2.0 mi North 8.1 mph - 0.00 in Rain Light Rain
1:15 PM 60.8 °F 57.2 °F 88% 30.22 in 1.0 mi NNW 8.1 mph - 0.01 in Rain Light Rain
1:45 PM 59.0 °F 57.2 °F 94% 30.21 in 7.0 mi North 9.2 mph - 0.01 in   Overcast
1:53 PM 60.1 °F 57.9 °F 93% 30.21 in 7.0 mi North 8.1 mph - 0.01 in   Overcast
2:53 PM 59.0 °F 57.9 °F 96% 30.21 in 10.0 mi North 9.2 mph - 0.00 in   Overcast
3:32 PM 59.0 °F 57.2 °F 94% 30.22 in 2.0 mi North 6.9 mph - N/A   Overcast
3:53 PM 60.1 °F 57.9 °F 93% 30.22 in 2.0 mi North 5.8 mph - N/A   Overcast
4:07 PM 60.8 °F 59.0 °F 94% 30.22 in 3.0 mi NNW 4.6 mph - N/A   Overcast
4:53 PM 60.1 °F 59.0 °F 96% 30.23 in 3.0 mi NNW 9.2 mph - N/A   Overcast
5:10 PM 59.0 °F 57.2 °F 94% 30.24 in 2.0 mi NNW 10.4 mph - N/A   Overcast
5:44 PM 59.0 °F 59.0 °F 100% 30.25 in 1.0 mi NNW 9.2 mph - N/A   Overcast
5:53 PM 59.0 °F 57.9 °F 96% 30.25 in 1.0 mi NNW 5.8 mph - N/A   Overcast
6:18 PM 59.0 °F 59.0 °F 100% 30.26 in 5.0 mi NNW 6.9 mph - N/A   Overcast
6:48 PM 59.0 °F 59.0 °F 100% 30.27 in 2.0 mi NNW 6.9 mph - 0.00 in   Drizzle
6:53 PM 59.0 °F 59.0 °F 100% 30.27 in 2.0 mi NNW 6.9 mph - 0.00 in   Light Drizzle
7:53 PM 59.0 °F 59.0 °F 100% 30.28 in 2.0 mi North 5.8 mph - 0.00 in   Light Drizzle
8:45 PM 59.0 °F 57.2 °F 94% 30.29 in 3.0 mi NNE 10.4 mph - 0.00 in   Overcast
8:53 PM 59.0 °F 57.9 °F 96% 30.29 in 3.0 mi North 8.1 mph - 0.00 in   Overcast
9:01 PM 57.2 °F 57.2 °F 100% 30.29 in 6.0 mi North 11.5 mph - N/A   Overcast
9:29 PM 57.2 °F 57.2 °F 100% 30.29 in 7.0 mi North 11.5 mph - N/A   Overcast
9:38 PM 57.2 °F 55.4 °F 94% 30.29 in 7.0 mi North 15.0 mph - N/A   Overcast
9:53 PM 57.0 °F 55.9 °F 96% 30.29 in 7.0 mi North 10.4 mph - N/A   Overcast
10:53 PM 57.0 °F 55.0 °F 93% 30.29 in 10.0 mi NNE 9.2 mph - N/A   Overcast
11:04 PM 57.2 °F 55.4 °F 94% 30.29 in 10.0 mi NNE 5.8 mph - N/A   Overcast
11:15 PM 57.2 °F 55.4 °F 94% 30.29 in 10.0 mi North 6.9 mph - N/A   Overcast
11:53 PM 55.9 °F 55.0 °F 97% 30.29 in 9.0 mi North 9.2 mph - N/A   Overcast